Weather History for VDPP - September, 2012

Change the Weather History Date:

Monday, September 10, 2012

  Actual Average Record
Temperature  
Mean Temperature 86 °F -  
Max Temperature 91 °F 85 °F - ()
Min Temperature 80 °F 76 °F - ()
Cooling Degree Days 20    
Growing Degree Days 36 (Base 50)    
Moisture  
Dew Point 73 °F    
Average Humidity 67    
Maximum Humidity 79    
Minimum Humidity 55    
Precipitation  
Precipitation 0.00 in - - ()
Sea Level Pressure  
Sea Level Pressure 29.82 in    
Wind  
Wind Speed 6 mph ()    
Max Wind Speed 16 mph    
Max Gust Speed -    
Visibility 6.0 miles    
Events Rain , Thunderstorm    
T = Trace of Precipitation, MM = Missing Value Source: Averaged Metar Reports

Daily Weather History Graph

Daily Weather History Graph

Search for Another Location

Airport or City:

Trip Planner

Search our weather history database for the weather conditions in past years. The results will help you decide how hot, cold, wet, or windy it might be!

Date:

Astronomy

Sep. 10, 2012 Rise Set
Actual Time 5:50 AM ICT 6:04 PM ICT
Civil Twilight 5:29 AM ICT 6:25 PM ICT
Nautical Twilight 5:04 AM ICT 6:50 PM ICT
Astronomical Twilight 4:39 AM ICT 7:15 PM ICT
Moon 12:27 AM ICT (9/10) 1:27 PM ICT (9/10)
Length of Visible Light 12h 56m
Length of Day
12h 14m
Waning Crescent, 34% of the Moon is Illuminated
Sep 10
Waning Crescent
Sep 16
New
Sep 23
First Quarter
Sep 30
Full
Oct 8
Last Quarter

Hourly Weather History & Observations

Time (ICT) Temp. Heat Index Dew Point Humidity Pressure Visibility Wind Dir Wind Speed Gust Speed Precip Events Conditions
6:00 AM 80.6 °F 85.4 °F 73.4 °F 79% 29.83 in 6.2 mi WNW 3.5 mph - N/A   Scattered Clouds
7:00 AM 80.6 °F 85.4 °F 73.4 °F 79% 29.83 in 6.2 mi West 5.8 mph - N/A   Scattered Clouds
7:30 AM 80.6 °F 85.4 °F 73.4 °F 79% 29.83 in 6.2 mi West 4.6 mph - N/A   Scattered Clouds
8:00 AM 82.4 °F 88.2 °F 73.4 °F 74% 29.86 in 6.2 mi WSW 4.6 mph - N/A   Scattered Clouds
8:30 AM 82.4 °F 88.2 °F 73.4 °F 74% 29.86 in 6.2 mi West 6.9 mph - N/A   Scattered Clouds
9:00 AM 86.0 °F 93.4 °F 73.4 °F 66% 29.86 in 6.2 mi Variable 1.2 mph - N/A   Scattered Clouds
9:30 AM 86.0 °F 93.4 °F 73.4 °F 66% 29.89 in 6.2 mi WNW 5.8 mph - N/A   Partly Cloudy
10:00 AM 86.0 °F 91.8 °F 71.6 °F 62% 29.89 in 6.2 mi North 8.1 mph - N/A   Mostly Cloudy
10:30 AM 87.8 °F 95.6 °F 73.4 °F 62% 29.89 in 6.2 mi North 11.5 mph - N/A   Mostly Cloudy
11:00 AM 87.8 °F 95.6 °F 73.4 °F 62% 29.86 in 6.2 mi NNE 6.9 mph - N/A   Scattered Clouds
11:30 AM 87.8 °F 95.6 °F 73.4 °F 62% 29.83 in 6.2 mi NNE 9.2 mph - N/A   Mostly Cloudy
12:00 PM 89.6 °F 98.2 °F 73.4 °F 59% 29.83 in 6.2 mi North 9.2 mph - N/A   Mostly Cloudy
12:30 PM 89.6 °F 98.2 °F 73.4 °F 59% 29.80 in 6.2 mi NNE 6.9 mph - N/A   Mostly Cloudy
1:00 PM 89.6 °F 98.2 °F 73.4 °F 59% 29.80 in 6.2 mi NNE 10.4 mph - N/A   Mostly Cloudy
1:30 PM 87.8 °F 95.6 °F 73.4 °F 62% 29.77 in 6.2 mi NE 11.5 mph - N/A   Mostly Cloudy
2:00 PM 87.8 °F 95.6 °F 73.4 °F 62% 29.74 in 6.2 mi North 8.1 mph - N/A   Mostly Cloudy
2:30 PM 89.6 °F 98.2 °F 73.4 °F 59% 29.74 in 6.2 mi North 6.9 mph - N/A   Mostly Cloudy
3:00 PM 89.6 °F 96.2 °F 71.6 °F 55% 29.74 in 6.2 mi NNW 8.1 mph - N/A   Scattered Clouds
3:30 PM 91.4 °F 100.1 °F 73.4 °F 55% 29.74 in 6.2 mi NNE 5.8 mph - N/A   Scattered Clouds
4:00 PM 89.6 °F 98.2 °F 73.4 °F 59% 29.74 in 6.2 mi NNW 3.5 mph - N/A   Scattered Clouds
4:30 PM 89.6 °F 96.2 °F 71.6 °F 55% 29.74 in 6.2 mi NNE 5.8 mph - N/A   Scattered Clouds
5:00 PM 87.8 °F 93.8 °F 71.6 °F 58% 29.74 in 6.2 mi ENE 2.3 mph - N/A   Scattered Clouds
5:30 PM 89.6 °F 96.2 °F 71.6 °F 55% 29.74 in 6.2 mi NNW 3.5 mph - N/A   Scattered Clouds
6:00 PM 82.4 °F 86.3 °F 69.8 °F 66% 29.77 in 6.2 mi SW 16.1 mph - N/A   Mostly Cloudy
6:30 PM 82.4 °F 87.2 °F 71.6 °F 70% 29.80 in 5.6 mi SW 6.9 mph - N/A Thunderstorm Thunderstorm
7:00 PM 82.4 °F 87.2 °F 71.6 °F 70% 29.80 in 5.6 mi WSW 5.8 mph - N/A Thunderstorm Thunderstorm
7:30 PM 82.4 °F 87.2 °F 71.6 °F 70% 29.83 in 5.6 mi WNW 10.4 mph - N/A   Mostly Cloudy
8:00 PM 80.6 °F 84.6 °F 71.6 °F 74% 29.83 in 5.6 mi WNW 5.8 mph - N/A   Mostly Cloudy
8:30 PM 80.6 °F 84.6 °F 71.6 °F 74% 29.83 in 5.6 mi SSW 6.9 mph - N/A   Mostly Cloudy
9:00 PM 80.6 °F 85.4 °F 73.4 °F 79% 29.83 in 5.6 mi SW 3.5 mph - N/A   Mostly Cloudy
9:30 PM 80.6 °F 85.4 °F 73.4 °F 79% 29.86 in 5.6 mi South 3.5 mph - N/A Rain Light Rain
10:00 PM 80.6 °F 85.4 °F 73.4 °F 79% 29.86 in 5.6 mi West 4.6 mph - N/A   Mostly Cloudy
10:30 PM 80.6 °F 85.4 °F 73.4 °F 79% 29.86 in 5.6 mi WNW 4.6 mph - N/A   Mostly Cloudy
11:00 PM 80.6 °F 84.6 °F 71.6 °F 74% 29.86 in 5.6 mi West 2.3 mph - N/A   Mostly Cloudy
11:30 PM 80.6 °F 85.4 °F 73.4 °F 79% 29.86 in 5.6 mi SW 2.3 mph - N/A   Mostly Cloudy